"Pseudo-MPEC" for P10NLPC

Created 2019 May 30 2:07:17 UT using Find_Orb

Click here for an explanation of pseudo-MPECs

 
 Astrometry: 
     P10NLPC  C2019 05 09xHE%:mo!S)FT$6ZU%vA#CWhpy-vd,t2Astrometryb@l[49P5G35F51
     P10NLPC  C2019 05 09!7L5Gredacted;+2BbUyPR7=wv)`puA^iqs6^ckuivt8\H=2NJI*F51
     P10NLPC  C2019 05 09gJ`clickQF[5i,c%jLJ@;P5C[qER]s`here#C`]n!hn\X]CA3G@-F51
     P10NLPC  C2019 05 09bJJQm_lk_enyBk_Z9:aQZxt!:aH4od_?;,X=yIVdqUacou/wd`XbF51
     P10NLPC KC2019 05 11Z3Wv6kk*dp7Bfor36kDTcyoLHj(XBFrTc-gt)W?t2J^(aowq9+4mH21
     P10NLPC KC2019 05 11!:;kws3CFA`ScZ\@TVR$nZ?t*pEC!Z6N,nKY[o%W/X@D:`xJmV'uH21
     P10NLPC KC2019 05 1181k8/explanationFLyI+qLe,ujc^#)(=Dhk\`r1S^Vkm#qFqRwwH21

Station data:
(F51) Pan-STARRS 1, Haleakala  (N20.707235 W156.255910)  US/Hawaii.
   Observers N. Primak, A. Schultz, S. Watters, J. Thiel, T. Goggia. Measurer
   PS1 Science Consortium. 1.8-m Ritchey-Chrétien + CCD.
(H21) Astronomical Research Observatory, Westfield  (N39.483057 W87.968270)
   US/Illinois. 0.76-m f/3.0 astrograph + CCD.

Orbital elements:  P10NLPC
   Perihelion 2019 Oct 26.220315 +/- 345 TT =  5:17:15 (JD 2458782.720315)
Epoch 2019 May 11.0 TT = JDT 2458614.5   Earth MOID: 0.4090   Ma: 0.0122
M 295.44903484 +/- 90               (J2000 ecliptic)          AutoNEOCP
n   0.38372871 +/- 0.19             Peri.  214.33232 +/- 60
a   1.87551201 +/- 0.618            Node   106.72980 +/- 40
e   0.2589529 +/- 0.25              Incl.   25.05447 +/- 32
P   2.57/938.15d           H 20.3   G  0.15   U 11.7  SR
q 1.38984267 +/- 0.906    Q 2.36118134 +/- 8.7
From 7 observations 2019 May 9-11 (42.1 hr); mean residual 0".10
Residuals in arcseconds: 
190509 F51  .01+  .03+    190509 F51  .00   .09-    190511 H21  .20+  .07+    
190509 F51  .05+  .08-    190511 H21  .23-  .03+    
190509 F51  .06-  .13+    190511 H21  .03+  .10-    

Ephemerides (geocentric):
Date (UTC) HH   RA              Dec         delta   r     elong  mag " sig PA
---- -- -- --  -------------   -----------  ------ ------ -----  --- ---- ---
2019 05 30 02  15 27 24.071   +24 05 36.84  .86682 1.7197 132.1 22.4 4080 136
2019 05 30 03  15 27 20.487   +24 05 03.45  .86676 1.7195 132.1 22.4 4100 136
2019 05 30 04  15 27 16.905   +24 04 29.99  .86670 1.7194 132.1 22.4 4121 136
2019 05 30 05  15 27 13.324   +24 03 56.45  .86664 1.7192 132.1 22.4 4141 136
2019 05 30 06  15 27 09.744   +24 03 22.84  .86658 1.7191 132.1 22.4 4161 136
2019 05 30 07  15 27 06.166   +24 02 49.14  .86651 1.7190 132.0 22.4 4182 136
2019 05 30 08  15 27 02.590   +24 02 15.37  .86645 1.7188 132.0 22.4 4202 136
2019 05 30 09  15 26 59.016   +24 01 41.53  .86639 1.7187 132.0 22.4 4223 136
2019 05 30 10  15 26 55.443   +24 01 07.61  .86633 1.7185 132.0 22.4 4243 136
2019 05 30 11  15 26 51.872   +24 00 33.61  .86627 1.7184 132.0 22.4 4264 136
2019 05 30 12  15 26 48.302   +23 59 59.53  .86622 1.7183 132.0 22.4 4285 136
2019 05 30 13  15 26 44.735   +23 59 25.38  .86616 1.7181 132.0 22.4 4305 136
2019 05 30 14  15 26 41.169   +23 58 51.15  .86610 1.7180 131.9 22.4 4326 136
2019 05 30 15  15 26 37.604   +23 58 16.84  .86604 1.7178 131.9 22.4 4347 136
2019 05 30 16  15 26 34.042   +23 57 42.46  .86598 1.7177 131.9 22.4 4368 136
2019 05 30 17  15 26 30.481   +23 57 08.00  .86592 1.7176 131.9 22.4 4389 136
2019 05 30 18  15 26 26.921   +23 56 33.47  .86586 1.7174 131.9 22.4 4410 136
2019 05 30 19  15 26 23.364   +23 55 58.85  .86581 1.7173 131.9 22.4 4432 136
2019 05 30 20  15 26 19.808   +23 55 24.17  .86575 1.7171 131.9 22.4 4453 136
2019 05 30 21  15 26 16.254   +23 54 49.40  .86569 1.7170 131.8 22.4 4474 136
2019 05 30 22  15 26 12.702   +23 54 14.56  .86563 1.7169 131.8 22.4 4496 136
2019 05 30 23  15 26 09.152   +23 53 39.64  .86558 1.7167 131.8 22.4 4517 136
2019 05 31 00  15 26 05.603   +23 53 04.65  .86552 1.7166 131.8 22.4 4539 136
2019 05 31 01  15 26 02.056   +23 52 29.58  .86547 1.7164 131.8 22.4 4560 136
2019 05 31 02  15 25 58.511   +23 51 54.44  .86541 1.7163 131.8 22.4 4582 136
2019 05 31 03  15 25 54.968   +23 51 19.21  .86535 1.7162 131.8 22.4 4604 136
2019 05 31 04  15 25 51.426   +23 50 43.92  .86530 1.7160 131.7 22.4 4626 136
2019 05 31 05  15 25 47.887   +23 50 08.54  .86524 1.7159 131.7 22.4 4648 136
2019 05 31 06  15 25 44.349   +23 49 33.09  .86519 1.7157 131.7 22.4 4670 136
2019 05 31 07  15 25 40.813   +23 48 57.56  .86513 1.7156 131.7 22.4 4692 136
2019 05 31 08  15 25 37.279   +23 48 21.96  .86508 1.7155 131.7 22.4 4714 136
2019 05 31 09  15 25 33.747   +23 47 46.28  .86502 1.7153 131.7 22.4 4736 136
2019 05 31 10  15 25 30.217   +23 47 10.53  .86497 1.7152 131.7 22.4 4758 136
2019 05 31 11  15 25 26.688   +23 46 34.70  .86492 1.7150 131.6 22.4 4781 135
2019 05 31 12  15 25 23.162   +23 45 58.79  .86486 1.7149 131.6 22.4 4803 135
2019 05 31 13  15 25 19.637   +23 45 22.81  .86481 1.7148 131.6 22.4 4826 135
2019 05 31 14  15 25 16.115   +23 44 46.75  .86476 1.7146 131.6 22.4 4848 135
2019 05 31 15  15 25 12.594   +23 44 10.61  .86470 1.7145 131.6 22.4 4871 135
2019 05 31 16  15 25 09.075   +23 43 34.40  .86465 1.7143 131.6 22.4 4893 135
2019 05 31 17  15 25 05.558   +23 42 58.12  .86460 1.7142 131.6 22.4 4916 135
2019 05 31 18  15 25 02.043   +23 42 21.76  .86455 1.7141 131.5 22.4 4939 135
2019 05 31 19  15 24 58.530   +23 41 45.32  .86450 1.7139 131.5 22.4 4962 135
2019 05 31 20  15 24 55.019   +23 41 08.81  .86445 1.7138 131.5 22.4 4985 135
2019 05 31 21  15 24 51.510   +23 40 32.22  .86439 1.7136 131.5 22.4 5008 135
2019 05 31 22  15 24 48.003   +23 39 55.55  .86434 1.7135 131.5 22.4 5031 135
2019 05 31 23  15 24 44.498   +23 39 18.81  .86429 1.7134 131.5 22.4 5055 135
2019 06 01 00  15 24 40.995   +23 38 42.00  .86424 1.7132 131.4 22.4 5078 135
2019 06 01 01  15 24 37.494   +23 38 05.11  .86419 1.7131 131.4 22.4 5101 135